Time,TemperatureF,DewpointF,PressureIn,WindDirection,WindDirectionDegrees,WindSpeedMPH,WindSpeedGustMPH,Humidity,HourlyPrecipIn,Conditions,Clouds,dailyrainin,SolarRadiationWatts/m^2,SoftwareType,DateUTC
2013-02-14 00:00:00,38.9,35.4,30.14,NW,315,0.0,1.0,87,0.00,,,-99.99,0,WeatherLink 5.7,2013-02-14 08:00:00,
2013-02-14 00:03:00,40.3,35.8,30.14,NW,315,0.0,0.0,84,0.00,,,0.00,,Wunderground v.1.13,2013-02-14 08:03:00,
2013-02-14 00:08:00,40.2,35.8,30.14,NW,315,0.0,0.0,84,0.00,,,0.00,,Wunderground v.1.13,2013-02-14 08:08:00,
2013-02-14 00:13:00,40.1,35.7,30.14,NW,315,0.0,0.0,84,0.00,,,0.00,,Wunderground v.1.13,2013-02-14 08:13:00,
2013-02-14 00:15:00,38.8,35.6,30.14,NW,315,0.0,1.0,88,0.00,,,-99.99,0,WeatherLink 5.7,2013-02-14 08:15:00,
2013-02-14 00:23:00,39.8,35.7,30.13,NW,315,0.0,0.0,85,0.00,,,0.00,,Wunderground v.1.13,2013-02-14 08:23:00,
2013-02-14 00:28:00,39.6,35.5,30.13,NW,315,0.0,0.0,85,0.00,,,0.00,,Wunderground v.1.13,2013-02-14 08:28:00,
2013-02-14 00:30:00,38.3,35.1,30.14,NW,315,0.0,1.0,88,0.00,,,-99.99,0,WeatherLink 5.7,2013-02-14 08:30:00,
2013-02-14 00:38:00,39.3,35.2,30.13,NW,315,0.0,0.0,85,0.00,,,0.00,,Wunderground v.1.13,2013-02-14 08:38:00,
2013-02-14 00:45:00,38.0,34.8,30.15,North,-999,0.0,0.0,88,0.00,,,-99.99,0,WeatherLink 5.7,2013-02-14 08:45:00,
2013-02-14 00:48:00,39.1,35.3,30.14,NW,315,0.0,0.0,86,0.00,,,0.00,,Wunderground v.1.13,2013-02-14 08:48:00,
2013-02-14 00:58:00,39.1,35.6,30.14,NW,315,0.0,0.0,87,0.00,,,0.00,,Wunderground v.1.13,2013-02-14 08:58:00,
2013-02-14 01:00:00,37.8,34.6,30.15,North,-999,0.0,0.0,88,0.00,,,-99.99,0,WeatherLink 5.7,2013-02-14 09:00:00,
2013-02-14 01:03:00,38.9,35.4,30.14,NW,315,0.0,0.0,87,0.00,,,0.00,,Wunderground v.1.13,2013-02-14 09:03:00,
2013-02-14 01:13:00,38.8,35.6,30.14,NW,315,0.0,1.0,88,0.00,,,0.00,,Wunderground v.1.13,2013-02-14 09:13:00,
2013-02-14 01:15:00,37.3,34.4,30.15,North,-999,0.0,0.0,89,0.00,,,-99.99,0,WeatherLink 5.7,2013-02-14 09:15:00,
2013-02-14 01:23:00,38.6,35.4,30.14,NW,315,0.0,0.0,88,0.00,,,0.00,,Wunderground v.1.13,2013-02-14 09:23:00,
2013-02-14 01:30:00,37.2,34.3,30.15,North,-999,0.0,0.0,89,0.00,,,-99.99,0,WeatherLink 5.7,2013-02-14 09:30:00,
2013-02-14 01:33:00,38.3,35.1,30.14,NW,315,0.0,0.0,88,0.00,,,0.00,,Wunderground v.1.13,2013-02-14 09:33:00,
2013-02-14 01:38:00,38.2,35.0,30.14,NW,315,0.0,0.0,88,0.00,,,0.00,,Wunderground v.1.13,2013-02-14 09:38:00,
2013-02-14 01:45:00,37.0,34.3,30.14,North,-999,0.0,0.0,90,0.00,,,-99.99,0,WeatherLink 5.7,2013-02-14 09:45:00,
2013-02-14 01:48:00,38.0,34.8,30.15,NW,315,0.0,0.0,88,0.00,,,0.00,,Wunderground v.1.13,2013-02-14 09:48:00,
2013-02-14 01:58:00,37.8,34.6,30.15,NW,315,0.0,0.0,88,0.00,,,0.00,,Wunderground v.1.13,2013-02-14 09:58:00,
2013-02-14 02:00:00,36.8,34.1,30.13,North,-999,0.0,0.0,90,0.00,,,-99.99,0,WeatherLink 5.7,2013-02-14 10:00:00,
2013-02-14 02:03:00,37.6,34.4,30.15,NW,315,0.0,0.0,88,0.00,,,0.00,,Wunderground v.1.13,2013-02-14 10:03:00,
2013-02-14 02:08:00,37.6,34.4,30.15,NW,315,0.0,0.0,88,0.00,,,0.00,,Wunderground v.1.13,2013-02-14 10:08:00,
2013-02-14 02:15:00,36.8,34.4,30.13,North,-999,0.0,0.0,91,0.00,,,-99.99,0,WeatherLink 5.7,2013-02-14 10:15:00,
2013-02-14 02:18:00,37.3,34.4,30.15,NW,315,0.0,0.0,89,0.00,,,0.00,,Wunderground v.1.13,2013-02-14 10:18:00,
2013-02-14 02:28:00,37.2,34.3,30.15,NW,315,0.0,0.0,89,0.00,,,0.00,,Wunderground v.1.13,2013-02-14 10:28:00,
2013-02-14 02:30:00,36.8,34.4,30.13,North,-999,0.0,0.0,91,0.00,,,-99.99,0,WeatherLink 5.7,2013-02-14 10:30:00,
2013-02-14 02:33:00,37.2,34.5,30.15,NW,315,0.0,0.0,90,0.00,,,0.00,,Wunderground v.1.13,2013-02-14 10:33:00,
2013-02-14 02:43:00,37.0,34.3,30.15,NW,315,0.0,0.0,90,0.00,,,0.00,,Wunderground v.1.13,2013-02-14 10:43:00,
2013-02-14 02:45:00,36.6,34.2,30.13,North,-999,0.0,0.0,91,0.00,,,-99.99,0,WeatherLink 5.7,2013-02-14 10:45:00,
2013-02-14 02:53:00,36.9,34.2,30.14,NW,315,0.0,0.0,90,0.00,,,0.00,,Wunderground v.1.13,2013-02-14 10:53:00,
2013-02-14 02:58:00,36.9,34.2,30.14,NW,315,0.0,0.0,90,0.00,,,0.00,,Wunderground v.1.13,2013-02-14 10:58:00,
2013-02-14 03:00:00,36.5,34.1,30.13,North,-999,0.0,0.0,91,0.00,,,-99.99,0,WeatherLink 5.7,2013-02-14 11:00:00,
2013-02-14 03:08:00,36.8,34.4,30.13,NW,315,0.0,0.0,91,0.00,,,0.00,,Wunderground v.1.13,2013-02-14 11:08:00,
2013-02-14 03:13:00,36.8,34.4,30.13,NW,315,0.0,0.0,91,0.00,,,0.00,,Wunderground v.1.13,2013-02-14 11:13:00,
2013-02-14 03:15:00,36.2,33.8,30.12,North,-999,0.0,0.0,91,0.00,,,-99.99,0,WeatherLink 5.7,2013-02-14 11:15:00,
2013-02-14 03:18:00,36.8,34.4,30.13,NW,315,0.0,0.0,91,0.00,,,0.00,,Wunderground v.1.13,2013-02-14 11:18:00,
2013-02-14 03:28:00,36.8,34.4,30.13,NW,315,0.0,0.0,91,0.00,,,0.00,,Wunderground v.1.13,2013-02-14 11:28:00,
2013-02-14 03:30:00,35.9,33.8,30.13,North,-999,0.0,0.0,92,0.00,,,-99.99,0,WeatherLink 5.7,2013-02-14 11:30:00,
2013-02-14 03:33:00,36.8,34.4,30.13,NW,315,0.0,0.0,91,0.00,,,0.00,,Wunderground v.1.13,2013-02-14 11:33:00,
2013-02-14 03:43:00,36.6,34.2,30.13,NW,315,0.0,0.0,91,0.00,,,0.00,,Wunderground v.1.13,2013-02-14 11:43:00,
2013-02-14 03:45:00,35.8,33.7,30.13,North,-999,0.0,0.0,92,0.00,,,-99.99,0,WeatherLink 5.7,2013-02-14 11:45:00,
2013-02-14 03:53:00,36.5,34.1,30.13,NW,315,0.0,0.0,91,0.00,,,0.00,,Wunderground v.1.13,2013-02-14 11:53:00,
2013-02-14 04:00:00,35.6,33.5,30.13,North,-999,0.0,0.0,92,0.00,,,-99.99,0,WeatherLink 5.7,2013-02-14 12:00:00,
2013-02-14 04:03:00,36.3,33.9,30.13,NW,315,0.0,0.0,91,0.00,,,0.00,,Wunderground v.1.13,2013-02-14 12:03:00,
2013-02-14 04:08:00,36.3,33.9,30.13,NW,315,0.0,0.0,91,0.00,,,0.00,,Wunderground v.1.13,2013-02-14 12:08:00,
2013-02-14 04:15:00,35.5,33.4,30.13,North,-999,0.0,0.0,92,0.00,,,-99.99,0,WeatherLink 5.7,2013-02-14 12:15:00,
2013-02-14 04:23:00,36.0,33.9,30.13,NW,315,0.0,0.0,92,0.00,,,0.00,,Wunderground v.1.13,2013-02-14 12:23:00,
2013-02-14 04:28:00,36.0,33.9,30.13,NW,315,0.0,0.0,92,0.00,,,0.00,,Wunderground v.1.13,2013-02-14 12:28:00,
2013-02-14 04:30:00,35.2,33.1,30.13,North,-999,0.0,0.0,92,0.00,,,-99.99,0,WeatherLink 5.7,2013-02-14 12:30:00,
2013-02-14 04:33:00,35.9,33.8,30.13,NW,315,0.0,0.0,92,0.00,,,0.00,,Wunderground v.1.13,2013-02-14 12:33:00,
2013-02-14 04:38:00,35.8,33.7,30.13,NW,315,0.0,0.0,92,0.00,,,0.00,,Wunderground v.1.13,2013-02-14 12:38:00,
2013-02-14 04:45:00,35.0,32.9,30.13,North,-999,0.0,0.0,92,0.00,,,-99.99,0,WeatherLink 5.7,2013-02-14 12:45:00,
2013-02-14 04:48:00,35.8,33.7,30.13,NW,315,0.0,0.0,92,0.00,,,0.00,,Wunderground v.1.13,2013-02-14 12:48:00,
2013-02-14 04:53:00,35.6,33.5,30.13,NW,315,0.0,0.0,92,0.00,,,0.00,,Wunderground v.1.13,2013-02-14 12:53:00,
2013-02-14 04:58:00,35.6,33.5,30.13,NW,315,0.0,0.0,92,0.00,,,0.00,,Wunderground v.1.13,2013-02-14 12:58:00,
2013-02-14 05:00:00,34.9,32.8,30.13,North,-999,0.0,0.0,92,0.00,,,-99.99,0,WeatherLink 5.7,2013-02-14 13:00:00,
2013-02-14 05:08:00,35.5,33.4,30.13,NW,315,0.0,0.0,92,0.00,,,0.00,,Wunderground v.1.13,2013-02-14 13:08:00,
2013-02-14 05:13:00,35.5,33.4,30.13,NW,315,0.0,0.0,92,0.00,,,0.00,,Wunderground v.1.13,2013-02-14 13:13:00,
2013-02-14 05:15:00,35.0,33.2,30.13,NW,315,0.0,1.0,93,0.00,,,-99.99,0,WeatherLink 5.7,2013-02-14 13:15:00,
2013-02-14 05:23:00,35.3,33.2,30.13,NW,315,0.0,0.0,92,0.00,,,0.00,,Wunderground v.1.13,2013-02-14 13:23:00,
2013-02-14 05:28:00,35.2,33.1,30.13,NW,315,0.0,0.0,92,0.00,,,0.00,,Wunderground v.1.13,2013-02-14 13:28:00,
2013-02-14 05:30:00,35.0,33.2,30.13,North,-999,0.0,0.0,93,0.00,,,-99.99,0,WeatherLink 5.7,2013-02-14 13:30:00,
2013-02-14 05:38:00,35.0,32.9,30.13,NW,315,0.0,0.0,92,0.00,,,0.00,,Wunderground v.1.13,2013-02-14 13:38:00,
2013-02-14 05:45:00,35.0,33.2,30.14,North,-999,0.0,0.0,93,0.00,,,-99.99,0,WeatherLink 5.7,2013-02-14 13:45:00,
2013-02-14 05:48:00,35.0,32.9,30.13,NW,315,0.0,0.0,92,0.00,,,0.00,,Wunderground v.1.13,2013-02-14 13:48:00,
2013-02-14 05:58:00,34.9,32.8,30.13,NW,315,0.0,0.0,92,0.00,,,0.00,,Wunderground v.1.13,2013-02-14 13:58:00,
2013-02-14 06:00:00,35.0,33.2,30.14,North,-999,0.0,0.0,93,0.00,,,-99.99,0,WeatherLink 5.7,2013-02-14 14:00:00,
2013-02-14 06:03:00,34.9,33.1,30.13,NW,315,0.0,0.0,93,0.00,,,0.00,,Wunderground v.1.13,2013-02-14 14:03:00,
2013-02-14 06:13:00,35.0,33.2,30.13,NW,315,0.0,0.0,93,0.00,,,0.00,,Wunderground v.1.13,2013-02-14 14:13:00,
2013-02-14 06:15:00,35.0,33.2,30.14,North,-999,0.0,0.0,93,0.00,,,-99.99,3,WeatherLink 5.7,2013-02-14 14:15:00,
2013-02-14 06:18:00,35.0,33.2,30.13,NW,315,0.0,0.0,93,0.00,,,0.00,,Wunderground v.1.13,2013-02-14 14:18:00,
2013-02-14 06:28:00,35.0,33.2,30.13,NW,315,0.0,0.0,93,0.00,,,0.00,,Wunderground v.1.13,2013-02-14 14:28:00,
2013-02-14 06:30:00,35.0,33.4,30.15,North,-999,0.0,0.0,94,0.00,,,-99.99,9,WeatherLink 5.7,2013-02-14 14:30:00,
2013-02-14 06:33:00,35.0,33.2,30.13,NW,315,0.0,0.0,93,0.00,,,0.00,,Wunderground v.1.13,2013-02-14 14:33:00,
2013-02-14 06:38:00,35.0,33.2,30.13,NW,315,0.0,0.0,93,0.00,,,0.00,,Wunderground v.1.13,2013-02-14 14:38:00,
2013-02-14 06:45:00,35.6,34.0,30.15,NW,315,0.0,1.0,94,0.00,,,-99.99,12,WeatherLink 5.7,2013-02-14 14:45:00,
2013-02-14 06:48:00,35.0,33.2,30.14,NW,315,0.0,0.0,93,0.00,,,0.00,,Wunderground v.1.13,2013-02-14 14:48:00,
2013-02-14 06:53:00,35.0,33.2,30.14,NW,315,0.0,0.0,93,0.00,,,0.00,,Wunderground v.1.13,2013-02-14 14:53:00,
2013-02-14 06:58:00,35.0,33.2,30.14,NW,315,0.0,0.0,93,0.00,,,0.00,,Wunderground v.1.13,2013-02-14 14:58:00,
2013-02-14 07:00:00,36.5,35.2,30.15,NW,315,0.0,1.0,95,0.00,,,-99.99,14,WeatherLink 5.7,2013-02-14 15:00:00,
2013-02-14 07:08:00,35.0,33.4,30.14,NW,315,0.0,0.0,94,0.00,,,0.00,,Wunderground v.1.13,2013-02-14 15:08:00,
2013-02-14 07:13:00,35.0,33.4,30.14,NW,315,0.0,0.0,94,0.00,,,0.00,,Wunderground v.1.13,2013-02-14 15:13:00,
2013-02-14 07:15:00,37.6,36.3,30.15,North,-999,0.0,0.0,95,0.00,,,-99.99,16,WeatherLink 5.7,2013-02-14 15:15:00,
2013-02-14 07:23:00,35.0,33.4,30.14,NW,315,0.0,0.0,94,0.00,,,0.00,,Wunderground v.1.13,2013-02-14 15:23:00,
2013-02-14 07:30:00,39.3,38.3,30.16,NW,315,0.0,1.0,96,0.00,,,-99.99,18,WeatherLink 5.7,2013-02-14 15:30:00,
2013-02-14 07:33:00,35.0,33.4,30.15,NW,315,0.0,0.0,94,0.00,,,0.00,,Wunderground v.1.13,2013-02-14 15:33:00,
2013-02-14 07:38:00,35.2,33.6,30.15,NW,315,0.0,0.0,94,0.00,,,0.00,,Wunderground v.1.13,2013-02-14 15:38:00,
2013-02-14 07:45:00,43.3,42.2,30.16,NW,315,0.0,2.0,96,0.00,,,-99.99,19,WeatherLink 5.7,2013-02-14 15:45:00,
2013-02-14 07:48:00,35.8,34.2,30.15,NW,315,0.0,0.0,94,0.00,,,0.00,,Wunderground v.1.13,2013-02-14 15:48:00,
2013-02-14 07:58:00,36.3,35.0,30.15,NW,315,0.0,0.0,95,0.00,,,0.00,,Wunderground v.1.13,2013-02-14 15:58:00,
2013-02-14 08:00:00,47.6,40.1,30.16,East,90,0.0,6.0,75,0.00,,,-99.99,20,WeatherLink 5.7,2013-02-14 16:00:00,
2013-02-14 08:03:00,36.6,35.3,30.15,NW,315,0.0,0.0,95,0.00,,,0.00,,Wunderground v.1.13,2013-02-14 16:03:00,
2013-02-14 08:08:00,37.2,35.9,30.15,NW,315,0.0,0.0,95,0.00,,,0.00,,Wunderground v.1.13,2013-02-14 16:08:00,
2013-02-14 08:15:00,51.1,39.7,30.16,NW,315,0.0,2.0,65,0.00,,,-99.99,21,WeatherLink 5.7,2013-02-14 16:15:00,
2013-02-14 08:18:00,37.6,36.3,30.15,NW,315,0.0,0.0,95,0.00,,,0.00,,Wunderground v.1.13,2013-02-14 16:18:00,
2013-02-14 08:23:00,38.0,37.0,30.15,NW,315,0.0,0.0,96,0.00,,,0.00,,Wunderground v.1.13,2013-02-14 16:23:00,
2013-02-14 08:28:00,38.8,37.8,30.15,NW,315,0.0,0.0,96,0.00,,,0.00,,Wunderground v.1.13,2013-02-14 16:28:00,
2013-02-14 08:30:00,52.9,39.8,30.16,NNW,337,0.0,5.0,61,0.00,,,-99.99,23,WeatherLink 5.7,2013-02-14 16:30:00,
2013-02-14 08:38:00,41.6,40.5,30.16,NW,313,0.0,0.0,96,0.00,,,0.00,,Wunderground v.1.13,2013-02-14 16:38:00,
2013-02-14 08:43:00,42.8,41.7,30.16,NW,313,0.0,0.0,96,0.00,,,0.00,,Wunderground v.1.13,2013-02-14 16:43:00,
2013-02-14 08:45:00,55.3,38.9,30.16,East,90,1.0,7.0,54,0.00,,,-99.99,34,WeatherLink 5.7,2013-02-14 16:45:00,
2013-02-14 08:53:00,45.1,42.1,30.16,NE,50,0.0,0.0,89,0.00,,,0.00,,Wunderground v.1.13,2013-02-14 16:53:00,
2013-02-14 09:00:00,56.3,38.4,30.16,East,90,2.0,6.0,51,0.00,,,-99.99,29,WeatherLink 5.7,2013-02-14 17:00:00,
2013-02-14 09:03:00,48.6,40.3,30.16,East,82,1.0,1.0,73,0.00,,,0.00,,Wunderground v.1.13,2013-02-14 17:03:00,
2013-02-14 09:08:00,49.8,40.0,30.16,NW,306,1.0,1.0,69,0.00,,,0.00,,Wunderground v.1.13,2013-02-14 17:08:00,
2013-02-14 09:15:00,56.7,38.8,30.16,East,90,2.0,10.0,51,0.00,,,-99.99,36,WeatherLink 5.7,2013-02-14 17:15:00,
2013-02-14 09:18:00,51.4,40.0,30.16,ENE,73,0.0,1.0,65,0.00,,,0.00,,Wunderground v.1.13,2013-02-14 17:18:00,
2013-02-14 09:28:00,52.6,39.9,30.16,NNW,342,0.0,0.0,62,0.00,,,0.00,,Wunderground v.1.13,2013-02-14 17:28:00,
2013-02-14 09:30:00,57.3,38.8,30.15,East,90,2.0,6.0,50,0.00,,,-99.99,59,WeatherLink 5.7,2013-02-14 17:30:00,
2013-02-14 09:33:00,53.2,39.7,30.16,NNW,340,0.0,1.0,60,0.00,,,0.00,,Wunderground v.1.13,2013-02-14 17:33:00,
2013-02-14 09:38:00,54.2,38.8,30.16,ENE,62,1.0,1.0,56,0.00,,,0.00,,Wunderground v.1.13,2013-02-14 17:38:00,
2013-02-14 09:45:00,58.3,39.7,30.15,East,90,2.0,6.0,50,0.00,,,-99.99,87,WeatherLink 5.7,2013-02-14 17:45:00,
2013-02-14 09:48:00,55.6,38.7,30.16,East,86,2.0,2.0,53,0.00,,,0.00,,Wunderground v.1.13,2013-02-14 17:48:00,
2013-02-14 09:58:00,56.2,38.3,30.16,North,355,1.0,2.0,51,0.00,,,0.00,,Wunderground v.1.13,2013-02-14 17:58:00,
2013-02-14 10:00:00,58.9,40.3,30.15,ENE,67,2.0,6.0,50,0.00,,,-99.99,184,WeatherLink 5.7,2013-02-14 18:00:00,
2013-02-14 10:03:00,56.3,38.4,30.16,NNE,24,2.0,2.0,51,0.00,,,0.00,,Wunderground v.1.13,2013-02-14 18:03:00,
2013-02-14 10:08:00,56.5,38.6,30.16,NNW,348,3.0,3.0,51,0.00,,,0.00,,Wunderground v.1.13,2013-02-14 18:08:00,
2013-02-14 10:15:00,59.9,40.1,30.15,East,90,2.0,5.0,48,0.00,,,-99.99,517,WeatherLink 5.7,2013-02-14 18:15:00,
2013-02-14 10:18:00,56.7,38.8,30.16,SE,131,2.0,2.0,51,0.00,,,0.00,,Wunderground v.1.13,2013-02-14 18:18:00,
2013-02-14 10:23:00,56.9,38.9,30.16,East,92,2.0,2.0,51,0.00,,,0.00,,Wunderground v.1.13,2013-02-14 18:23:00,
2013-02-14 10:28:00,57.2,38.7,30.16,NW,308,2.0,2.0,50,0.00,,,0.00,,Wunderground v.1.13,2013-02-14 18:28:00,
2013-02-14 10:30:00,60.7,39.8,30.15,East,90,1.0,5.0,46,0.00,,,-99.99,427,WeatherLink 5.7,2013-02-14 18:30:00,
2013-02-14 10:38:00,57.8,39.3,30.15,East,98,2.0,4.0,50,0.00,,,0.00,,Wunderground v.1.13,2013-02-14 18:38:00,
2013-02-14 10:45:00,61.5,39.9,30.15,East,90,1.0,5.0,45,0.00,,,-99.99,550,WeatherLink 5.7,2013-02-14 18:45:00,
2013-02-14 10:48:00,58.3,39.7,30.15,ENE,66,2.0,2.0,50,0.00,,,0.00,,Wunderground v.1.13,2013-02-14 18:48:00,
2013-02-14 10:58:00,58.7,40.1,30.15,NNW,327,2.0,3.0,50,0.00,,,0.00,,Wunderground v.1.13,2013-02-14 18:58:00,
2013-02-14 11:00:00,62.3,41.2,30.13,ENE,67,1.0,4.0,46,0.00,,,-99.99,472,WeatherLink 5.7,2013-02-14 19:00:00,
2013-02-14 11:03:00,59.0,39.9,30.15,SE,135,2.0,5.0,49,0.00,,,0.00,,Wunderground v.1.13,2013-02-14 19:03:00,
2013-02-14 11:13:00,59.8,40.1,30.15,North,9,2.0,5.0,48,0.00,,,0.00,,Wunderground v.1.13,2013-02-14 19:13:00,
2013-02-14 11:15:00,63.1,40.8,30.13,ENE,67,1.0,3.0,44,0.00,,,-99.99,125,WeatherLink 5.7,2013-02-14 19:15:00,
2013-02-14 11:23:00,60.2,40.4,30.15,ENE,74,1.0,1.0,48,0.00,,,0.00,,Wunderground v.1.13,2013-02-14 19:23:00,
2013-02-14 11:28:00,60.5,39.6,30.15,West,276,1.0,1.0,46,0.00,,,0.00,,Wunderground v.1.13,2013-02-14 19:28:00,
2013-02-14 11:30:00,64.2,41.2,30.12,East,90,1.0,5.0,43,0.00,,,-99.99,363,WeatherLink 5.7,2013-02-14 19:30:00,
2013-02-14 11:38:00,61.2,40.2,30.15,NNE,18,1.0,1.0,46,0.00,,,0.00,,Wunderground v.1.13,2013-02-14 19:38:00,
2013-02-14 11:45:00,64.7,41.7,30.12,ENE,67,1.0,4.0,43,0.00,,,-99.99,324,WeatherLink 5.7,2013-02-14 19:45:00,
2013-02-14 11:48:00,61.5,40.5,30.15,NE,51,1.0,1.0,46,0.00,,,0.00,,Wunderground v.1.13,2013-02-14 19:48:00,
2013-02-14 11:53:00,61.6,40.6,30.15,ENE,65,1.0,1.0,46,0.00,,,0.00,,Wunderground v.1.13,2013-02-14 19:53:00,
2013-02-14 12:00:00,65.5,40.5,30.11,NE,45,1.0,4.0,40,0.00,,,-99.99,168,WeatherLink 5.7,2013-02-14 20:00:00,
2013-02-14 12:03:00,62.4,40.8,30.13,ENE,60,1.0,2.0,45,0.00,,,0.00,,Wunderground v.1.13,2013-02-14 20:03:00,
2013-02-14 12:08:00,62.9,41.2,30.13,ENE,77,1.0,1.0,45,0.00,,,0.00,,Wunderground v.1.13,2013-02-14 20:08:00,
2013-02-14 12:13:00,63.1,41.4,30.13,East,80,1.0,2.0,45,0.00,,,0.00,,Wunderground v.1.13,2013-02-14 20:13:00,
2013-02-14 12:15:00,65.8,40.8,30.10,East,90,1.0,4.0,40,0.00,,,-99.99,518,WeatherLink 5.7,2013-02-14 20:15:00,
2013-02-14 12:18:00,63.2,40.9,30.13,NE,54,1.0,1.0,44,0.00,,,0.00,,Wunderground v.1.13,2013-02-14 20:18:00,
2013-02-14 12:28:00,64.0,41.0,30.13,ENE,69,1.0,2.0,43,0.00,,,0.00,,Wunderground v.1.13,2013-02-14 20:28:00,
2013-02-14 12:30:00,66.0,40.3,30.09,ENE,67,1.0,3.0,39,0.00,,,-99.99,399,WeatherLink 5.7,2013-02-14 20:30:00,
2013-02-14 12:38:00,64.2,41.2,30.12,ENE,74,1.0,1.0,43,0.00,,,0.00,,Wunderground v.1.13,2013-02-14 20:38:00,
2013-02-14 12:43:00,64.3,41.9,30.12,NW,317,1.0,1.0,44,0.00,,,0.00,,Wunderground v.1.13,2013-02-14 20:43:00,
2013-02-14 12:45:00,66.3,40.6,30.09,East,90,1.0,4.0,39,0.00,,,-99.99,43,WeatherLink 5.7,2013-02-14 20:45:00,
2013-02-14 12:53:00,65.3,41.0,30.12,NE,40,1.0,1.0,41,0.00,,,0.00,,Wunderground v.1.13,2013-02-14 20:53:00,
2013-02-14 12:58:00,65.5,41.2,30.12,East,84,1.0,1.0,41,0.00,,,0.00,,Wunderground v.1.13,2013-02-14 20:58:00,
2013-02-14 13:03:00,65.5,41.2,30.11,East,100,1.0,1.0,41,0.00,,,0.00,,Wunderground v.1.13,2013-02-14 21:03:00,
2013-02-14 13:08:00,65.5,41.2,30.11,NNW,329,1.0,1.0,41,0.00,,,0.00,,Wunderground v.1.13,2013-02-14 21:08:00,
2013-02-14 13:15:00,67.1,39.9,30.08,East,90,1.0,5.0,37,0.00,,,-99.99,202,WeatherLink 5.7,2013-02-14 21:15:00,
2013-02-14 13:18:00,65.8,40.1,30.10,ENE,61,1.0,1.0,39,0.00,,,0.00,,Wunderground v.1.13,2013-02-14 21:18:00,
2013-02-14 13:28:00,66.0,41.0,30.10,ENE,71,1.0,1.0,40,0.00,,,0.00,,Wunderground v.1.13,2013-02-14 21:28:00,
2013-02-14 13:30:00,67.4,40.2,30.08,NW,315,1.0,6.0,37,0.00,,,-99.99,108,WeatherLink 5.7,2013-02-14 21:30:00,
2013-02-14 13:33:00,66.1,40.4,30.09,NNE,23,1.0,1.0,39,0.00,,,0.00,,Wunderground v.1.13,2013-02-14 21:33:00,
2013-02-14 13:43:00,66.4,40.7,30.09,East,88,1.0,2.0,39,0.00,,,0.00,,Wunderground v.1.13,2013-02-14 21:43:00,
2013-02-14 13:45:00,67.4,40.2,30.08,East,90,1.0,4.0,37,0.00,,,-99.99,122,WeatherLink 5.7,2013-02-14 21:45:00,
2013-02-14 13:48:00,66.3,40.6,30.09,ENE,66,1.0,1.0,39,0.00,,,0.00,,Wunderground v.1.13,2013-02-14 21:48:00,
2013-02-14 13:53:00,66.1,40.4,30.09,ENE,78,1.0,2.0,39,0.00,,,0.00,,Wunderground v.1.13,2013-02-14 21:53:00,
2013-02-14 13:58:00,66.1,40.4,30.09,NW,313,1.0,1.0,39,0.00,,,0.00,,Wunderground v.1.13,2013-02-14 21:58:00,
2013-02-14 14:00:00,67.8,40.6,30.08,East,90,1.0,6.0,37,0.00,,,-99.99,40,WeatherLink 5.7,2013-02-14 22:00:00,
2013-02-14 14:08:00,66.8,41.0,30.09,East,81,1.0,1.0,39,0.00,,,0.00,,Wunderground v.1.13,2013-02-14 22:08:00,
2013-02-14 14:15:00,67.4,40.9,30.08,ENE,67,1.0,4.0,38,0.00,,,-99.99,32,WeatherLink 5.7,2013-02-14 22:15:00,
2013-02-14 14:18:00,67.3,40.1,30.08,NNE,32,1.0,1.0,37,0.00,,,0.00,,Wunderground v.1.13,2013-02-14 22:18:00,
2013-02-14 14:28:00,67.4,40.2,30.08,North,5,1.0,1.0,37,0.00,,,0.00,,Wunderground v.1.13,2013-02-14 22:28:00,
2013-02-14 14:30:00,67.1,40.6,30.08,NW,315,1.0,4.0,38,0.00,,,-99.99,30,WeatherLink 5.7,2013-02-14 22:30:00,
2013-02-14 14:38:00,67.3,40.1,30.07,NNW,340,1.0,1.0,37,0.00,,,0.00,,Wunderground v.1.13,2013-02-14 22:38:00,
2013-02-14 14:45:00,66.9,40.5,30.08,ESE,112,1.0,4.0,38,0.00,,,-99.99,30,WeatherLink 5.7,2013-02-14 22:45:00,
2013-02-14 14:48:00,67.6,39.7,30.08,NE,51,1.0,3.0,36,0.00,,,0.00,,Wunderground v.1.13,2013-02-14 22:48:00,
2013-02-14 14:58:00,67.8,40.6,30.08,East,88,1.0,1.0,37,0.00,,,0.00,,Wunderground v.1.13,2013-02-14 22:58:00,
2013-02-14 15:00:00,66.9,41.1,30.08,East,90,0.0,4.0,39,0.00,,,-99.99,28,WeatherLink 5.7,2013-02-14 23:00:00,
2013-02-14 15:03:00,67.8,41.3,30.08,NNE,19,1.0,1.0,38,0.00,,,0.00,,Wunderground v.1.13,2013-02-14 23:03:00,
2013-02-14 15:13:00,67.4,40.2,30.08,West,263,1.0,2.0,37,0.00,,,0.00,,Wunderground v.1.13,2013-02-14 23:13:00,
2013-02-14 15:15:00,66.6,40.9,30.07,North,0,0.0,2.0,39,0.00,,,-99.99,26,WeatherLink 5.7,2013-02-14 23:15:00,
2013-02-14 15:18:00,67.4,40.9,30.08,NW,317,1.0,1.0,38,0.00,,,0.00,,Wunderground v.1.13,2013-02-14 23:18:00,
2013-02-14 15:23:00,67.4,40.9,30.08,NW,316,1.0,1.0,38,0.00,,,0.00,,Wunderground v.1.13,2013-02-14 23:23:00,
2013-02-14 15:30:00,66.4,40.7,30.07,East,90,0.0,6.0,39,0.00,,,-99.99,28,WeatherLink 5.7,2013-02-14 23:30:00,
2013-02-14 15:33:00,67.1,40.6,30.08,SE,128,1.0,1.0,38,0.00,,,0.00,,Wunderground v.1.13,2013-02-14 23:33:00,
2013-02-14 15:38:00,67.1,40.6,30.08,ESE,105,1.0,1.0,38,0.00,,,0.00,,Wunderground v.1.13,2013-02-14 23:38:00,
2013-02-14 15:43:00,66.9,40.5,30.08,East,79,0.0,1.0,38,0.00,,,0.00,,Wunderground v.1.13,2013-02-14 23:43:00,
2013-02-14 15:45:00,66.1,41.1,30.07,NW,315,0.0,3.0,40,0.00,,,-99.99,21,WeatherLink 5.7,2013-02-14 23:45:00,
2013-02-14 15:48:00,66.9,40.5,30.08,ENE,66,1.0,1.0,38,0.00,,,0.00,,Wunderground v.1.13,2013-02-14 23:48:00,
2013-02-14 15:58:00,66.9,41.1,30.08,NNW,336,1.0,1.0,39,0.00,,,0.00,,Wunderground v.1.13,2013-02-14 23:58:00,
2013-02-14 16:00:00,65.6,41.3,30.07,ENE,67,0.0,3.0,41,0.00,,,-99.99,18,WeatherLink 5.7,2013-02-15 00:00:00,
2013-02-14 16:08:00,66.8,40.4,30.07,NW,309,1.0,1.0,38,0.00,,,0.00,,Wunderground v.1.13,2013-02-15 00:08:00,
2013-02-14 16:15:00,65.2,42.1,30.07,North,0,0.0,5.0,43,0.00,,,-99.99,14,WeatherLink 5.7,2013-02-15 00:15:00,
2013-02-14 16:18:00,66.6,40.9,30.07,NE,39,0.0,0.0,39,0.00,,,0.00,,Wunderground v.1.13,2013-02-15 00:18:00,
2013-02-14 16:23:00,66.4,40.7,30.07,East,86,0.0,0.0,39,0.00,,,0.00,,Wunderground v.1.13,2013-02-15 00:23:00,
2013-02-14 16:30:00,63.9,42.1,30.07,NNE,22,0.0,1.0,45,0.00,,,-99.99,10,WeatherLink 5.7,2013-02-15 00:30:00,
2013-02-14 16:33:00,66.4,40.7,30.07,NW,307,0.0,0.0,39,0.00,,,0.00,,Wunderground v.1.13,2013-02-15 00:33:00,
2013-02-14 16:38:00,66.4,41.3,30.07,NW,307,0.0,0.0,40,0.00,,,0.00,,Wunderground v.1.13,2013-02-15 00:38:00,
2013-02-14 16:45:00,62.3,42.9,30.08,North,-999,0.0,0.0,49,0.00,,,-99.99,5,WeatherLink 5.7,2013-02-15 00:45:00,
2013-02-14 16:48:00,66.1,41.7,30.07,ENE,61,0.0,0.0,41,0.00,,,0.00,,Wunderground v.1.13,2013-02-15 00:48:00,
2013-02-14 16:58:00,65.6,41.3,30.07,NW,311,0.0,0.0,41,0.00,,,0.00,,Wunderground v.1.13,2013-02-15 00:58:00,
2013-02-14 17:00:00,60.4,43.7,30.08,North,-999,0.0,0.0,54,0.00,,,-99.99,0,WeatherLink 5.7,2013-02-15 01:00:00,
2013-02-14 17:03:00,65.5,41.2,30.07,NW,311,0.0,0.0,41,0.00,,,0.00,,Wunderground v.1.13,2013-02-15 01:03:00,
2013-02-14 17:08:00,65.3,41.0,30.07,NNE,24,0.0,0.0,41,0.00,,,0.00,,Wunderground v.1.13,2013-02-15 01:08:00,
2013-02-14 17:15:00,58.4,43.2,30.09,NNE,22,0.0,1.0,57,0.00,,,-99.99,0,WeatherLink 5.7,2013-02-15 01:15:00,
2013-02-14 17:18:00,65.0,41.9,30.07,NNE,24,0.0,0.0,43,0.00,,,0.00,,Wunderground v.1.13,2013-02-15 01:18:00,
2013-02-14 17:28:00,64.2,42.4,30.07,NNE,24,0.0,0.0,45,0.00,,,0.00,,Wunderground v.1.13,2013-02-15 01:28:00,
2013-02-14 17:30:00,57.0,43.2,30.09,NNE,22,0.0,1.0,60,0.00,,,-99.99,0,WeatherLink 5.7,2013-02-15 01:30:00,
2013-02-14 17:38:00,63.1,42.5,30.07,NNE,24,0.0,0.0,47,0.00,,,0.00,,Wunderground v.1.13,2013-02-15 01:38:00,
2013-02-14 17:43:00,62.6,42.6,30.07,NNE,24,0.0,0.0,48,0.00,,,0.00,,Wunderground v.1.13,2013-02-15 01:43:00,
2013-02-14 17:45:00,55.7,43.3,30.09,North,-999,0.0,0.0,63,0.00,,,-99.99,0,WeatherLink 5.7,2013-02-15 01:45:00,
2013-02-14 17:53:00,61.3,43.0,30.08,NNE,24,0.0,0.0,51,0.00,,,0.00,,Wunderground v.1.13,2013-02-15 01:53:00,
2013-02-14 18:00:00,54.4,42.9,30.09,North,-999,0.0,0.0,65,0.00,,,-99.99,0,WeatherLink 5.7,2013-02-15 02:00:00,
2013-02-14 18:03:00,59.9,43.2,30.08,NNE,24,0.0,0.0,54,0.00,,,0.00,,Wunderground v.1.13,2013-02-15 02:03:00,
2013-02-14 18:08:00,59.3,43.1,30.08,NNE,24,0.0,0.0,55,0.00,,,0.00,,Wunderground v.1.13,2013-02-15 02:08:00,
2013-02-14 18:15:00,53.3,43.0,30.09,North,-999,0.0,0.0,68,0.00,,,-99.99,0,WeatherLink 5.7,2013-02-15 02:15:00,
2013-02-14 18:18:00,58.1,42.9,30.09,NNE,24,0.0,0.0,57,0.00,,,0.00,,Wunderground v.1.13,2013-02-15 02:18:00,
2013-02-14 18:28:00,57.2,43.0,30.09,NNE,24,0.0,0.0,59,0.00,,,0.00,,Wunderground v.1.13,2013-02-15 02:28:00,
2013-02-14 18:30:00,52.3,42.4,30.10,North,-999,0.0,0.0,69,0.00,,,-99.99,0,WeatherLink 5.7,2013-02-15 02:30:00,
2013-02-14 18:33:00,56.7,43.4,30.09,NNE,24,0.0,0.0,61,0.00,,,0.00,,Wunderground v.1.13,2013-02-15 02:33:00,
2013-02-14 18:43:00,56.0,43.2,30.09,NNE,24,0.0,0.0,62,0.00,,,0.00,,Wunderground v.1.13,2013-02-15 02:43:00,
2013-02-14 18:45:00,51.4,42.7,30.10,North,-999,0.0,0.0,72,0.00,,,-99.99,0,WeatherLink 5.7,2013-02-15 02:45:00,
2013-02-14 18:53:00,55.1,43.1,30.09,NNE,24,0.0,0.0,64,0.00,,,0.00,,Wunderground v.1.13,2013-02-15 02:53:00,
2013-02-14 19:00:00,50.5,42.2,30.10,North,-999,0.0,0.0,73,0.00,,,-99.99,0,WeatherLink 5.7,2013-02-15 03:00:00,
2013-02-14 19:03:00,54.2,43.1,30.09,NNE,24,0.0,0.0,66,0.00,,,0.00,,Wunderground v.1.13,2013-02-15 03:03:00,
2013-02-14 19:08:00,53.8,43.1,30.09,NNE,24,0.0,0.0,67,0.00,,,0.00,,Wunderground v.1.13,2013-02-15 03:08:00,
2013-02-14 19:15:00,49.8,42.2,30.10,North,-999,0.0,0.0,75,0.00,,,-99.99,0,WeatherLink 5.7,2013-02-15 03:15:00,
2013-02-14 19:18:00,53.2,43.3,30.09,NNE,24,0.0,0.0,69,0.00,,,0.00,,Wunderground v.1.13,2013-02-15 03:18:00,
2013-02-14 19:28:00,52.5,42.6,30.09,NNE,24,0.0,0.0,69,0.00,,,0.00,,Wunderground v.1.13,2013-02-15 03:28:00,
2013-02-14 19:30:00,49.1,41.9,30.10,NNE,22,0.0,1.0,76,0.00,,,-99.99,0,WeatherLink 5.7,2013-02-15 03:30:00,
2013-02-14 19:38:00,51.7,42.6,30.10,NNE,24,0.0,0.0,71,0.00,,,0.00,,Wunderground v.1.13,2013-02-15 03:38:00,
2013-02-14 19:45:00,48.3,41.8,30.11,North,-999,0.0,0.0,78,0.00,,,-99.99,0,WeatherLink 5.7,2013-02-15 03:45:00,
2013-02-14 19:48:00,51.3,42.6,30.10,NNE,24,0.0,0.0,72,0.00,,,0.00,,Wunderground v.1.13,2013-02-15 03:48:00,
2013-02-14 19:58:00,50.7,42.4,30.10,NNE,24,0.0,0.0,73,0.00,,,0.00,,Wunderground v.1.13,2013-02-15 03:58:00,
2013-02-14 20:00:00,47.4,41.2,30.12,North,-999,0.0,0.0,79,0.00,,,-99.99,0,WeatherLink 5.7,2013-02-15 04:00:00,
2013-02-14 20:03:00,50.4,42.4,30.10,NNE,24,0.0,0.0,74,0.00,,,0.00,,Wunderground v.1.13,2013-02-15 04:03:00,
2013-02-14 20:08:00,50.1,42.1,30.10,NNE,24,0.0,0.0,74,0.00,,,0.00,,Wunderground v.1.13,2013-02-15 04:08:00,
2013-02-14 20:13:00,49.8,42.2,30.10,NNE,24,0.0,0.0,75,0.00,,,0.00,,Wunderground v.1.13,2013-02-15 04:13:00,
2013-02-14 20:15:00,47.0,41.1,30.12,NNE,22,0.0,1.0,80,0.00,,,-99.99,0,WeatherLink 5.7,2013-02-15 04:15:00,
2013-02-14 20:23:00,49.4,42.1,30.10,NNE,24,0.0,0.0,76,0.00,,,0.00,,Wunderground v.1.13,2013-02-15 04:23:00,
2013-02-14 20:28:00,49.1,41.9,30.10,NNE,24,0.0,0.0,76,0.00,,,0.00,,Wunderground v.1.13,2013-02-15 04:28:00,
2013-02-14 20:30:00,46.4,40.9,30.12,North,-999,0.0,0.0,81,0.00,,,-99.99,0,WeatherLink 5.7,2013-02-15 04:30:00,
2013-02-14 20:38:00,48.6,41.7,30.11,NNE,24,0.0,0.0,77,0.00,,,0.00,,Wunderground v.1.13,2013-02-15 04:38:00,
2013-02-14 20:45:00,45.8,40.6,30.12,North,-999,0.0,0.0,82,0.00,,,-99.99,0,WeatherLink 5.7,2013-02-15 04:45:00,
2013-02-14 20:48:00,48.2,41.7,30.11,NNE,24,0.0,0.0,78,0.00,,,0.00,,Wunderground v.1.13,2013-02-15 04:48:00,
2013-02-14 20:53:00,47.9,41.4,30.11,NNE,24,0.0,0.0,78,0.00,,,0.00,,Wunderground v.1.13,2013-02-15 04:53:00,
2013-02-14 21:00:00,45.5,40.6,30.12,North,-999,0.0,0.0,83,0.00,,,-99.99,0,WeatherLink 5.7,2013-02-15 05:00:00,
2013-02-14 21:03:00,47.4,41.2,30.12,NNE,24,0.0,0.0,79,0.00,,,0.00,,Wunderground v.1.13,2013-02-15 05:03:00,
2013-02-14 21:13:00,47.0,41.1,30.12,NNE,24,0.0,0.0,80,0.00,,,0.00,,Wunderground v.1.13,2013-02-15 05:13:00,
2013-02-14 21:15:00,45.4,40.8,30.12,North,-999,0.0,0.0,84,0.00,,,-99.99,0,WeatherLink 5.7,2013-02-15 05:15:00,
2013-02-14 21:23:00,46.7,40.9,30.12,NNE,24,0.0,0.0,80,0.00,,,0.00,,Wunderground v.1.13,2013-02-15 05:23:00,
2013-02-14 21:30:00,45.1,40.6,30.13,North,-999,0.0,0.0,84,0.00,,,-99.99,0,WeatherLink 5.7,2013-02-15 05:30:00,
2013-02-14 21:33:00,46.4,40.9,30.12,NNE,24,0.0,0.0,81,0.00,,,0.00,,Wunderground v.1.13,2013-02-15 05:33:00,
2013-02-14 21:38:00,46.1,40.6,30.12,NNE,24,0.0,0.0,81,0.00,,,0.00,,Wunderground v.1.13,2013-02-15 05:38:00,
2013-02-14 21:45:00,44.5,40.0,30.13,North,-999,0.0,0.0,84,0.00,,,-99.99,0,WeatherLink 5.7,2013-02-15 05:45:00,
2013-02-14 21:48:00,45.8,40.6,30.12,NNE,24,0.0,0.0,82,0.00,,,0.00,,Wunderground v.1.13,2013-02-15 05:48:00,
2013-02-14 21:58:00,45.7,40.8,30.12,NNE,24,0.0,0.0,83,0.00,,,0.00,,Wunderground v.1.13,2013-02-15 05:58:00,
2013-02-14 22:00:00,44.2,40.0,30.13,North,-999,0.0,0.0,85,0.00,,,-99.99,0,WeatherLink 5.7,2013-02-15 06:00:00,
2013-02-14 22:03:00,45.5,40.9,30.12,NNE,24,0.0,0.0,84,0.00,,,0.00,,Wunderground v.1.13,2013-02-15 06:03:00,
2013-02-14 22:08:00,45.5,40.9,30.12,NNE,24,0.0,0.0,84,0.00,,,0.00,,Wunderground v.1.13,2013-02-15 06:08:00,
2013-02-14 22:15:00,43.8,39.6,30.13,North,-999,0.0,0.0,85,0.00,,,-99.99,0,WeatherLink 5.7,2013-02-15 06:15:00,
2013-02-14 22:18:00,45.4,40.8,30.12,NNE,24,0.0,0.0,84,0.00,,,0.00,,Wunderground v.1.13,2013-02-15 06:18:00,
2013-02-14 22:23:00,45.2,40.3,30.12,NNE,24,0.0,0.0,83,0.00,,,0.00,,Wunderground v.1.13,2013-02-15 06:23:00,
2013-02-14 22:30:00,43.3,39.4,30.14,North,-999,0.0,0.0,86,0.00,,,-99.99,0,WeatherLink 5.7,2013-02-15 06:30:00,
2013-02-14 22:33:00,44.9,40.4,30.13,NNE,24,0.0,0.0,84,0.00,,,0.00,,Wunderground v.1.13,2013-02-15 06:33:00,
2013-02-14 22:38:00,44.8,40.3,30.13,NNE,24,0.0,0.0,84,0.00,,,0.00,,Wunderground v.1.13,2013-02-15 06:38:00,
2013-02-14 22:43:00,44.6,40.1,30.13,NNE,24,0.0,0.0,84,0.00,,,0.00,,Wunderground v.1.13,2013-02-15 06:43:00,
2013-02-14 22:45:00,42.9,39.3,30.13,North,-999,0.0,0.0,87,0.00,,,-99.99,0,WeatherLink 5.7,2013-02-15 06:45:00,
2013-02-14 22:53:00,44.3,40.1,30.13,NNE,24,0.0,0.0,85,0.00,,,0.00,,Wunderground v.1.13,2013-02-15 06:53:00,
2013-02-14 22:58:00,44.2,40.0,30.13,NNE,24,0.0,0.0,85,0.00,,,0.00,,Wunderground v.1.13,2013-02-15 06:58:00,
2013-02-14 23:00:00,42.5,39.2,30.14,North,-999,0.0,0.0,88,0.00,,,-99.99,0,WeatherLink 5.7,2013-02-15 07:00:00,
2013-02-14 23:03:00,44.1,39.9,30.13,NNE,24,0.0,0.0,85,0.00,,,0.00,,Wunderground v.1.13,2013-02-15 07:03:00,
2013-02-14 23:08:00,44.1,39.9,30.13,NNE,24,0.0,0.0,85,0.00,,,0.00,,Wunderground v.1.13,2013-02-15 07:08:00,
2013-02-14 23:15:00,42.1,38.8,30.14,North,-999,0.0,0.0,88,0.00,,,-99.99,0,WeatherLink 5.7,2013-02-15 07:15:00,
2013-02-14 23:18:00,43.8,39.9,30.13,NNE,24,0.0,0.0,86,0.00,,,0.00,,Wunderground v.1.13,2013-02-15 07:18:00,
2013-02-14 23:28:00,43.3,39.4,30.13,NNE,24,0.0,0.0,86,0.00,,,0.00,,Wunderground v.1.13,2013-02-15 07:28:00,
2013-02-14 23:30:00,41.6,38.3,30.14,North,-999,0.0,0.0,88,0.00,,,-99.99,0,WeatherLink 5.7,2013-02-15 07:30:00,
2013-02-14 23:33:00,43.2,39.3,30.14,NNE,24,0.0,0.0,86,0.00,,,0.00,,Wunderground v.1.13,2013-02-15 07:33:00,
2013-02-14 23:43:00,42.9,39.3,30.14,NNE,24,0.0,0.0,87,0.00,,,0.00,,Wunderground v.1.13,2013-02-15 07:43:00,
2013-02-14 23:45:00,41.3,38.3,30.14,North,-999,0.0,0.0,89,0.00,,,-99.99,0,WeatherLink 5.7,2013-02-15 07:45:00,
2013-02-14 23:53:00,42.6,39.0,30.13,NNE,24,0.0,0.0,87,0.00,,,0.00,,Wunderground v.1.13,2013-02-15 07:53:00,